Regional Weather Roundup
Issued by NWS Sioux Falls, SD

Home | Current Version | Previous Version | Text Only | Print | Product List | Glossary On
Versions: 1 2 3 4 5 6 7 8 9 10 11 12 13 14 15 16 17 18 19 20 21 22 23 24 25 26 27 28 29 30 31 32 33 34 35 36 37 38 39 40 41 42 43 44 45 46 47 48 49 50
000
ASUS43 KFSD 301102
RWRFSD

WEATHER ROUNDUP FOR SE SOUTH DAKOTA/SW MINNESOTA/NW IOWA
NATIONAL WEATHER SERVICE SIOUX FALLS SD
600 AM CDT MON MAR 30 2015

NOTE: "FAIR" INDICATES FEW OR NO CLOUDS BELOW 12,000 FEET WITH NO
SIGNIFICANT WEATHER AND OR OBSTRUCTIONS TO VISIBILITY.


SDZ038>040-050-052>070-301200-
SOUTHEAST SOUTH DAKOTA

CITY           SKY/WX    TMP DP  RH WIND       PRES   REMARKS
CHAMBERLAIN    NOT AVBL
HURON          CLEAR     35  24  64 S5        29.94F
MADISON        FAIR      37  19  48 SW9       29.98F
MITCHELL       CLEAR     41  23  48 SW6       29.98F
SIOUX FALLS    MOCLDY    31  21  66 SW3       30.01S
WINNER         FAIR      44  19  36 NW8       29.97S
YANKTON        CLEAR     36  21  55 CALM      30.03S
$$

MNZ071-072-080-081-089-090-097-098-301200-
SOUTHWEST MINNESOTA

CITY           SKY/WX    TMP DP  RH WIND       PRES   REMARKS
FAIRMONT       PTCLDY    39  21  48 SW15      30.00R
JACKSON        PTCLDY    37  23  56 SW7       30.02R
LUVERNE        PTCLDY    32  23  69 CALM      30.03R
MARSHALL       CLOUDY    45  21  39 W7        29.98S
MONTEVIDEO     MOCLDY    37  27  65 CALM      29.97F
PIPESTONE      CLOUDY    36  23  60 SW3       29.99F
REDWOOD FALLS  MOCLDY    40  25  55 W9        29.98R
TRACY          CLOUDY    44  25  47 SW12      29.99R
WINDOM         PTCLDY    36  23  60 SW5       30.01R
WORTHINGTON    CLOUDY    37  21  52 SW9       30.03R
$$

IAZ001>003-012>014-020>022-031-032-NEZ013-014-SDZ071-301200-
NORTHWEST IOWA

CITY           SKY/WX    TMP DP  RH WIND       PRES   REMARKS
DENISON        PTCLDY    32  25  74 CALM      30.07S
ESTHERVILLE    CLEAR     36  24  62 SW13      30.01S
SIOUX CITY     PTCLDY    31  22  69 E8        30.06S WCI  23
SPENCER        MOCLDY    34  24  67 SW3       30.04S
$$

ABBREVIATIONS USED IN REMARKS
   TC - TEMPERATURE IN CELSIUS
  WCI - WIND CHILL INDEX
   HX - HEAT INDEX
  VSB - VISIBILITY




USA.gov is the U.S. government's official web portal to all federal, state and local government web resources and services.